Weather History for KDVT - February, 2013

Change the Weather History Date:

Tuesday, February 26, 2013

  Actual Average Record
Temperature  
Mean Temperature 52 °F -  
Max Temperature 66 °F 64 °F 81 °F (2006)
Min Temperature 37 °F 44 °F 37 °F (2013)
Degree Days  
Heating Degree Days 14    
Growing Degree Days 2 (Base 50)    
Moisture  
Dew Point 17 °F    
Average Humidity 30    
Maximum Humidity 60    
Minimum Humidity 10    
Precipitation  
Precipitation 0.00 in - - ()
Sea Level Pressure  
Sea Level Pressure 29.98 in    
Wind  
Wind Speed 3 mph (North)    
Max Wind Speed 10 mph    
Max Gust Speed -    
Visibility 10 miles    
Events      
Averages and records for this station are not official NWS values.
T = Trace of Precipitation, MM = Missing Value Source: NWS Daily Summary

Daily Weather History Graph

Daily Weather History Graph

Search for Another Location

Airport or City:

Trip Planner

Search our weather history database for the weather conditions in past years. The results will help you decide how hot, cold, wet, or windy it might be!

Date:

Astronomy

Feb. 26, 2013 Rise Set
Actual Time 6:59 AM MST 6:22 PM MST
Civil Twilight 6:34 AM MST 6:47 PM MST
Nautical Twilight 6:05 AM MST 7:16 PM MST
Astronomical Twilight 5:37 AM MST 7:45 PM MST
Moon 7:36 PM MST (2/26) 7:09 AM MST (2/26)
Length of Visible Light 12h 12m
Length of Day
11h 22m
Full, 99% of the Moon is Illuminated
Feb 26
Full
Mar 4
Last Quarter
Mar 11
New
Mar 19
First Quarter
Mar 27
Full

Hourly Weather History & Observations

Time (MST) Temp. Windchill Dew Point Humidity Pressure Visibility Wind Dir Wind Speed Gust Speed Precip Events Conditions
12:53 AM 42.1 °F - 25.0 °F 51% 30.01 in 10.0 mi Calm Calm - N/A   Clear
1:53 AM 43.0 °F - 23.0 °F 45% 30.01 in 10.0 mi Calm Calm - N/A   Clear
2:53 AM 39.0 °F 34.8 °F 25.0 °F 57% 29.99 in 10.0 mi ESE 5.8 mph - N/A   Clear
3:53 AM 37.9 °F - 25.0 °F 60% 29.96 in 10.0 mi Calm Calm - N/A   Clear
4:53 AM 41.0 °F 34.7 °F 21.9 °F 47% 29.96 in 10.0 mi NNE 10.4 mph - N/A   Clear
5:53 AM 41.0 °F 39.0 °F 21.0 °F 45% 29.97 in 10.0 mi Variable 3.5 mph - N/A   Clear
6:53 AM 41.0 °F 39.0 °F 21.0 °F 45% 29.98 in 10.0 mi Variable 3.5 mph - N/A   Clear
7:53 AM 39.9 °F - 25.0 °F 55% 29.99 in 10.0 mi Calm Calm - N/A   Clear
8:53 AM 46.0 °F - 24.1 °F 42% 30.01 in 10.0 mi Calm Calm - N/A   Clear
9:53 AM 50.0 °F - 23.0 °F 35% 30.01 in 10.0 mi West 3.5 mph - N/A   Clear
10:53 AM 53.1 °F - 19.0 °F 26% 30.01 in 10.0 mi SW 3.5 mph - N/A   Clear
11:53 AM 55.9 °F - 19.9 °F 25% 30.01 in 10.0 mi WSW 4.6 mph - N/A   Clear
12:53 PM 59.0 °F - 19.9 °F 22% 29.98 in 10.0 mi Variable 5.8 mph - N/A   Clear
1:53 PM 61.0 °F - 19.0 °F 20% 29.95 in 10.0 mi SSW 8.1 mph - N/A   Clear
2:53 PM 63.0 °F - 15.1 °F 16% 29.93 in 10.0 mi Variable 3.5 mph - N/A   Clear
3:53 PM 66.0 °F - 10.0 °F 11% 29.92 in 10.0 mi SSE 4.6 mph - N/A   Clear
4:53 PM 66.0 °F - 7.0 °F 10% 29.91 in 10.0 mi Variable 3.5 mph - N/A   Clear
5:53 PM 64.9 °F - 8.1 °F 11% 29.92 in 10.0 mi WNW 6.9 mph - N/A   Clear
6:53 PM 61.0 °F - 17.1 °F 18% 29.94 in 10.0 mi Calm Calm - N/A   Clear
7:53 PM 59.0 °F - 3.0 °F 11% 29.97 in 10.0 mi North 10.4 mph - N/A   Clear
8:53 PM 55.9 °F - 8.1 °F 15% 29.98 in 10.0 mi North 5.8 mph - N/A   Clear
9:53 PM 53.1 °F - 10.9 °F 19% 30.02 in 10.0 mi NE 4.6 mph - N/A   Clear
10:53 PM 51.1 °F - 10.0 °F 19% 30.04 in 10.0 mi NNE 8.1 mph - N/A   Clear
11:53 PM 48.9 °F - 9.0 °F 20% 30.06 in 10.0 mi NE 4.6 mph - N/A   Clear